Location: Unspecified
(0.0000°N, 0.0000°E)
Time: 20:57:40
(UTC+00:00)

Envisat - Pass Details

Date: 14 August 2017
Orbit: 764 x 766 km, 98.2° (Epoch: 22 October)

Event Time Altitude Azimuth Distance (km) Brightness Sun altitude
Exits shadow 20:11:54 17° 4° (N) 1,866 5.1 -30.8°
Drops below altitude 10° 20:13:01 10° 1° (N) 2,292 5.6 -31.0°
Sets 20:15:21 0° 357° (N) 3,215 6.5 -31.6°
